User: anonymous   Login
Location: Peebles
(55.6412°N, 3.1714°W)
Time: 13:38:28
(UTC+00:00)
Language:

Okean 2 Rocket - Orbit

View from above orbital plane
View from above orbital plane
View from above satellite
View from above satellite

Ground track
Ground track

The orbit data is extracted from the following two-line orbital elements,

1 20511U 90018B   21341.73349274  .00000103  00000-0  10405-4 0  9995
2 20511  82.5245 231.7834 0018187 148.1745 237.8148 14.80108882692730
Epoch (UTC): 07 December 2021 17:36:13
Eccentricity: 0.0018187
inclination: 82.5245°
perigee height: 616 km
apogee height: 642 km
right ascension of ascending node: 231.7834°
argument of perigee: 148.1745°
revolutions per day: 14.80108882
mean anomaly at epoch: 237.8148°
orbit number at epoch: 69273

The dashed part of the orbit path shows where the satellite is in the earth's shadow,  

DLR